AXM722A WMKP-WMKL

Flight info

Callsign AXM722A
Flight time 0h 18m
Altitude 10000
Route OMBOK DCT KAPKO KAPKO1E
Aircraft A320/M-SDE3FGHIRWY/LB1

Departure

Time 2026-04-19 00:24
Airport Penang International Airport (WMKP)

Arrival

Time 2026-04-19 00:43
Airport Langkawi International Airport (WMKL)
Time Latitude Longitude Altitude Speed Heading
2026-04-18 23:51 5.29224 100.26645 23 ft 0 kts 311°
2026-04-19 00:17 5.29223 100.26646 23 ft 2 kts 311°
2026-04-19 00:17 5.29207 100.26666 23 ft 4 kts 306°
2026-04-19 00:17 5.29192 100.26688 23 ft 4 kts 296°
2026-04-19 00:17 5.29184 100.26713 23 ft 4 kts 266°
2026-04-19 00:18 5.29189 100.26729 23 ft 1 kts 220°
2026-04-19 00:18 5.29192 100.26731 23 ft 0 kts 220°
2026-04-19 00:20 5.29189 100.26728 23 ft 2 kts 221°
2026-04-19 00:20 5.29105 100.26653 24 ft 25 kts 223°
2026-04-19 00:21 5.28980 100.26603 23 ft 17 kts 144°
2026-04-19 00:21 5.28916 100.26671 24 ft 13 kts 156°
2026-04-19 00:21 5.28845 100.26637 25 ft 12 kts 223°
2026-04-19 00:21 5.28782 100.26583 26 ft 12 kts 212°
2026-04-19 00:22 5.28705 100.26578 23 ft 11 kts 161°
2026-04-19 00:22 5.28674 100.26604 24 ft 0 kts 135°
2026-04-19 00:22 5.28672 100.26605 24 ft 3 kts 135°
2026-04-19 00:23 5.28627 100.26651 23 ft 11 kts 134°
2026-04-19 00:23 5.28636 100.26704 23 ft 9 kts 48°
2026-04-19 00:23 5.28653 100.26722 23 ft 0 kts 43°
2026-04-19 00:23 5.28663 100.26731 23 ft 9 kts 43°
2026-04-19 00:24 5.28964 100.27004 26 ft 107 kts 42°
2026-04-19 00:24 5.29708 100.27682 46 ft 176 kts 42°
2026-04-19 00:24 5.30637 100.28487 985 ft 177 kts 39°
2026-04-19 00:24 5.31609 100.29273 1887 ft 191 kts 41°
2026-04-19 00:25 5.32681 100.30228 2513 ft 217 kts 41°
2026-04-19 00:25 5.33859 100.31286 3262 ft 243 kts 38°
2026-04-19 00:25 5.35455 100.32038 3834 ft 267 kts
2026-04-19 00:25 5.37300 100.31740 4403 ft 281 kts 333°
2026-04-19 00:26 5.38876 100.30601 5772 ft 279 kts 319°
2026-04-19 00:26 5.40298 100.29254 7060 ft 284 kts 316°
2026-04-19 00:26 5.41733 100.27862 8202 ft 291 kts 317°
2026-04-19 00:26 5.43250 100.26484 9258 ft 298 kts 320°
2026-04-19 00:27 5.44860 100.25134 9755 ft 303 kts 321°
2026-04-19 00:27 5.46519 100.23835 9951 ft 302 kts 323°
2026-04-19 00:27 5.48207 100.22578 10005 ft 302 kts 324°
2026-04-19 00:27 5.49906 100.21344 10014 ft 301 kts 324°
2026-04-19 00:28 5.51606 100.20121 10007 ft 301 kts 325°
2026-04-19 00:28 5.53306 100.18898 10018 ft 301 kts 325°
2026-04-19 00:28 5.55004 100.17671 10012 ft 301 kts 324°
2026-04-19 00:28 5.56700 100.16440 10013 ft 301 kts 324°
2026-04-19 00:29 5.58397 100.15208 10013 ft 301 kts 324°
2026-04-19 00:29 5.60091 100.13975 10013 ft 301 kts 324°
2026-04-19 00:29 5.61785 100.12741 10007 ft 301 kts 324°
2026-04-19 00:29 5.63478 100.11507 10027 ft 300 kts 324°
2026-04-19 00:30 5.65170 100.10274 10044 ft 301 kts 324°
2026-04-19 00:30 5.66863 100.09040 10039 ft 301 kts 324°
2026-04-19 00:30 5.68560 100.07803 10037 ft 302 kts 324°
2026-04-19 00:30 5.70258 100.06565 10035 ft 302 kts 324°
2026-04-19 00:31 5.71957 100.05327 10032 ft 302 kts 324°
2026-04-19 00:31 5.73705 100.04170 10029 ft 301 kts 333°
2026-04-19 00:31 5.75591 100.03265 10027 ft 301 kts 335°
2026-04-19 00:31 5.77480 100.02364 10029 ft 301 kts 335°
2026-04-19 00:32 5.79371 100.01461 10046 ft 301 kts 335°
2026-04-19 00:32 5.81259 100.00554 10051 ft 301 kts 335°
2026-04-19 00:32 5.83144 99.99647 10045 ft 300 kts 335°
2026-04-19 00:32 5.85031 99.98741 10043 ft 301 kts 335°
2026-04-19 00:33 5.86920 99.97837 10042 ft 301 kts 335°
2026-04-19 00:33 5.88809 99.96933 10040 ft 301 kts 335°
2026-04-19 00:33 5.90699 99.96026 9928 ft 301 kts 335°
2026-04-19 00:33 5.92586 99.95118 9805 ft 301 kts 334°
2026-04-19 00:34 5.95969 99.92670 9556 ft 301 kts 315°
2026-04-19 00:34 5.97303 99.91052 9431 ft 301 kts 305°
2026-04-19 00:34 5.98418 99.89270 9305 ft 301 kts 302°
2026-04-19 00:35 5.99516 99.87482 9202 ft 301 kts 302°
2026-04-19 00:35 6.00616 99.85695 9120 ft 301 kts 302°
2026-04-19 00:35 6.01719 99.83906 8996 ft 301 kts 302°
2026-04-19 00:35 6.02803 99.82145 8866 ft 300 kts 302°
2026-04-19 00:36 6.03899 99.80361 8751 ft 300 kts 302°
2026-04-19 00:36 6.04993 99.78581 8622 ft 299 kts 302°
2026-04-19 00:36 6.06085 99.76806 8498 ft 298 kts 302°
2026-04-19 00:36 6.07177 99.75029 8142 ft 300 kts 302°
2026-04-19 00:37 6.08260 99.73263 7499 ft 293 kts 302°
2026-04-19 00:37 6.09323 99.71532 6865 ft 289 kts 302°
2026-04-19 00:37 6.10372 99.69828 6218 ft 285 kts 302°
2026-04-19 00:37 6.11472 99.68190 5592 ft 281 kts 311°
2026-04-19 00:38 6.12904 99.66878 5000 ft 279 kts 324°
2026-04-19 00:38 6.14407 99.65629 4296 ft 284 kts 313°
2026-04-19 00:38 6.15857 99.64269 3550 ft 289 kts 329°
2026-04-19 00:38 6.17717 99.63652 3183 ft 277 kts 355°
2026-04-19 00:39 6.19571 99.63881 2905 ft 264 kts 19°
2026-04-19 00:39 6.21144 99.64762 2580 ft 256 kts 33°
2026-04-19 00:39 6.22572 99.65748 2260 ft 239 kts 34°
2026-04-19 00:39 6.23887 99.66652 1958 ft 220 kts 34°
2026-04-19 00:40 6.25107 99.67485 1695 ft 202 kts 34°
2026-04-19 00:40 6.26202 99.68231 1458 ft 176 kts 35°
2026-04-19 00:40 6.27135 99.68868 1216 ft 151 kts 34°
2026-04-19 00:40 6.27949 99.69425 1017 ft 134 kts 34°
2026-04-19 00:41 6.28694 99.69934 843 ft 126 kts 34°
2026-04-19 00:41 6.29409 99.70422 679 ft 123 kts 34°
2026-04-19 00:41 6.30112 99.70903 517 ft 122 kts 34°
2026-04-19 00:41 6.30812 99.71381 355 ft 121 kts 34°
2026-04-19 00:42 6.31509 99.71858 195 ft 121 kts 34°
2026-04-19 00:42 6.32201 99.72332 51 ft 117 kts 35°
2026-04-19 00:42 6.32793 99.72744 33 ft 88 kts 34°
2026-04-19 00:42 6.33239 99.73046 32 ft 68 kts 34°
2026-04-19 00:43 6.33577 99.73275 31 ft 48 kts 33°
2026-04-19 00:43 6.33739 99.73350 32 ft 16 kts 327°
2026-04-19 00:43 6.33797 99.73285 32 ft 12 kts 304°
2026-04-19 00:43 6.33847 99.73212 31 ft 13 kts 315°
2026-04-19 00:44 6.33899 99.73171 32 ft 8 kts 308°
2026-04-19 00:44 6.33917 99.73145 32 ft 0 kts 304°